Location: Dilsberg
(49.3983°N, 8.8354°E)
Time: 18:06:06
(UTC+00:00)

Daily predictions for brighter satellites

Satellite Brightness Start Highest point End
(mag) Time Altitude Azimuth Time Altitude Azimuth Time Altitude Azimuth
Cosmos 839 Rocket 4.5 19:39:42 10° SW 19:45:58 77° NW 19:53:28 10° NE
Meteor 1-25 Rocket 4.2 19:42:11 10° N 19:47:46 81° ENE 19:53:19 10° SSE
Cosmos 2074 Rocket 4.1 19:42:02 10° N 19:48:17 88° W 19:54:30 10° S
Lacrosse 5 rocket 1.2 19:45:09 10° NW 19:48:44 61° NNE 19:52:09 10° ESE
SPOT 5 3.0 19:47:47 10° S 19:52:04 63° WSW 19:56:22 10° NNW
Cosmos 1814 Rocket 4.0 19:47:17 10° S 19:52:21 67° ESE 19:57:31 10° NNE
Cosmos 1867 4.2 19:49:49 10° NNW 19:55:08 49° NE 20:00:25 10° ESE
Alouette 2 Rocket 3.7 19:52:32 10° NNW 19:56:08 68° WSW 20:00:33 10° S
Cosmos-2242 3.8 19:52:21 10° SSE 19:56:12 34° E 20:00:04 10° NNE
Nadezhda 1 Rocket 4.1 19:50:24 10° S 19:56:21 61° E 20:02:26 10° NNE
Cosmos 1656 3.9 19:51:52 10° NNW 19:57:31 72° WSW 20:03:02 10° SSE
Cosmos 2154 Rocket 4.1 19:51:57 10° N 19:58:12 89° W 20:04:25 10° S
Cosmos 2184 Rocket 4.3 19:54:57 10° NNW 20:01:12 75° W 20:07:29 10° S
SeaSat 1 3.9 19:58:06 10° E 20:02:07 26° NE 20:06:09 10° N
Cosmos 2082 Rocket 4.1 20:01:47 10° ESE 20:02:40 10° E 20:03:34 10° E
Cosmos 1933 3.2 19:59:20 10° S 20:03:10 71° E 20:07:01 10° NNE
Okean O Rocket 1.9 19:59:02 10° S 20:03:22 68° WSW 20:07:42 10° NNW
Cosmos 2221 4.5 20:01:38 10° ESE 20:03:29 13° E 20:05:20 10° NE
Iridium 4 Rocket 3.6 20:00:45 10° N 20:05:51 85° E 20:11:22 10° S
SPOT 3 Rocket 4.1 20:03:03 10° SE 20:07:52 43° ENE 20:12:42 10° N
Okean-O 2.7 20:04:29 10° SSE 20:08:52 82° WSW 20:13:17 10° NNW
ERS-1 Rocket 3.1 20:05:55 10° SSE 20:10:55 81° WSW 20:15:58 10° NNW
Cosmos 1743 2.6 20:14:13 10° NNW 20:17:38 69° W 20:21:01 10° S
ISS -3.5 20:16:24 10° WNW 20:19:45 67° NNE 20:23:06 10° E
Lacrosse 4 Rocket 4.2 20:18:32 10° W 20:21:41 22° NW 20:24:55 10° NNE
Cosmos 2084 Rocket 4.4 20:18:08 10° S 20:21:45 27° ESE 20:25:20 10° ENE
BREEZE-M R/B 4.4 19:58:00 10° W 20:22:05 87° S 20:26:58 10° E
Spot 2 Rocket 3.5 20:17:41 10° SSE 20:22:42 81° ENE 20:27:46 10° NNW
ARIANE 6 FM1 Upper Stage 2.5 20:19:33 10° SW 20:23:34 76° SE 20:27:36 10° NE
NOSS 3-1 (C) 3.3 20:19:14 10° S 20:23:39 41° ESE 20:28:54 10° NE
IKONOS-2 4.4 20:23:22 10° NNE 20:27:29 66° ESE 20:31:34 10° S
Meteor 1-5 Rocket 4.5 20:22:56 10° NNW 20:28:56 79° W 20:34:53 10° S
CZ-4 R/B 4.4 20:28:23 10° WSW 20:29:28 11° W 20:30:33 10° WNW
Cosmos 1833 Rocket 2.7 20:24:18 10° SSW 20:29:52 66° ESE 20:35:29 10° NNE
Cosmos 1356 Rocket 4.1 20:28:39 14° SSE 20:31:41 36° E 20:35:28 10° NNE
Cosmos 1733 2.5 20:30:51 10° N 20:33:57 76° E 20:36:07 18° SSE
SL-24 R/B 4.5 20:30:54 14° SSE 20:34:24 75° ENE 20:38:33 10° N
Cosmos 158 Rocket 4.1 20:33:27 10° SSW 20:38:46 89° WNW 20:44:11 10° NNE
USA 245 3.8 20:35:19 12° S 20:39:05 75° WSW 20:44:15 10° NNW
Cosmos 1900 4.5 20:34:24 10° NW 20:39:31 80° SW 20:43:28 17° SSE
Cosmos 2218 Rocket 4.2 20:34:34 10° N 20:40:55 63° ENE 20:46:01 16° SSE
Cosmos 2058 Rocket 3.8 20:39:25 10° SSW 20:43:48 56° WNW 20:48:12 10° N
Helios 1A 4.3 20:43:59 10° N 20:47:47 40° WNW 20:51:32 10° SW
Cosmos 1805 4.3 20:46:12 10° NNE 20:49:11 26° ENE 20:50:42 19° ESE
PSLV R/B 3.3 20:49:41 21° S 20:51:43 78° WSW 20:54:59 10° NNW
Cosmos 1812 Rocket 3.7 20:48:57 18° SSE 20:51:56 52° E 20:56:08 10° NNE
NOSS 3-1 (A) 3.7 20:50:27 17° SSE 20:53:24 31° ESE 20:58:13 10° NE
Cosmos 1980 Rocket 2.4 20:47:53 10° NNW 20:53:28 63° ENE 20:57:27 19° SE
Terra 3.1 20:50:47 10° SSW 20:55:07 36° W 20:59:29 10° NNW
ATLAS CENTAUR R/B 1.7 20:51:49 10° SW 20:55:28 58° NW 20:59:15 10° NE
USA 234 3.2 20:50:14 10° ENE 20:56:49 81° SE 21:03:22 10° SW
Cosmos 1315 Rocket 3.1 20:55:12 22° SSE 20:57:21 46° E 21:01:06 10° NNE
NOSS 7 (H) 4.3 20:55:16 10° NW 20:58:09 60° SW 20:59:35 28° SSE
Cosmos 1959 Rocket 4.5 20:52:43 10° N 20:58:56 79° E 21:03:44 18° SSE
BREEZE-M DEB (TANK) 4.4 20:37:47 10° W 20:59:29 89° N 21:04:39 10° E
Meteor 1-26 Rocket 4.4 20:54:34 10° S 21:00:27 87° WNW 21:06:31 10° NNE
Cosmos 2208 Rocket 4.1 20:55:11 10° S 21:00:30 62° ESE 21:05:46 10° NNE
Cosmos 2181 Rocket 4.1 20:58:42 15° S 21:03:50 64° E 21:10:09 10° NNE
SL-16 R/B 3.9 20:59:35 10° NNW 21:04:15 25° NE 21:08:52 10° E
DELTA 2 DEB (DPAF) 4.4 21:03:49 10° NNE 21:07:31 38° E 21:09:02 27° SE
Meteor 1-11 Rocket 4.5 21:02:29 10° N 21:07:39 39° ENE 21:10:57 20° SE
BlueWalker 3 2.1 21:05:15 10° WNW 21:08:47 49° SSW 21:10:12 30° SSE
SL-24 R/B 4.1 21:05:38 10° NNE 21:09:55 63° ESE 21:12:50 21° S
Cosmos 1125 Rocket 4.3 21:05:00 10° NW 21:10:03 46° WSW 21:14:02 16° S
Meteor 2-10 4.2 21:04:22 10° NNW 21:10:07 90° NNW 21:13:58 21° S
Cosmos 1346 Rocket 4.4 21:08:18 10° NNW 21:11:29 27° W 21:14:32 11° SSW
Cosmos 2322 Rocket 4.2 21:08:50 10° N 21:12:58 20° NE 21:17:05 10° E
Cosmos 2366 rocket 4.2 21:09:48 10° NNW 21:16:10 73° W 21:21:08 17° S
SL-24 DEB 4.2 21:14:17 21° S 21:17:17 79° W 21:21:52 10° N
CZ-4C R/B 4.2 21:16:06 10° NE 21:19:12 26° E 21:19:42 25° ESE
Meteor 1-14 Rocket 4.2 21:14:37 10° N 21:20:15 82° ENE 21:23:50 24° SSE
Ariane Rocket 3.5 21:16:59 17° S 21:20:44 53° W 21:25:43 10° NNW
Cosmos 44 4.1 21:18:30 10° NW 21:22:44 37° WSW 21:25:13 22° S
Cosmos 1238 Rocket 2.4 21:22:13 26° S 21:24:08 88° W 21:27:27 10° N
SL-8 Rocket 4.5 21:18:40 10° NNW 21:24:41 57° W 21:29:41 15° SSW
Cosmos 2298 Rocket 4.1 21:19:31 10° NNW 21:24:52 77° WSW 21:27:57 26° SSE
Cosmos 1697 Rocket 3.6 21:20:14 10° NW 21:25:29 40° WSW 21:29:17 18° SSW
Nadezhda 3 Rocket 4.4 21:21:58 24° SSE 21:25:30 48° E 21:31:28 10° NNE
Lacrosse 5 rocket 2.4 21:23:02 10° WNW 21:25:51 22° SW 21:26:34 21° SSW
ARIANE 5 R/B 3.9 21:23:51 19° ESE 21:25:57 29° ENE 21:29:42 10° N
Cosmos 1570 Rocket 4.4 21:21:49 10° SW 21:27:00 64° WNW 21:32:17 10° NNE
CENTAUR R/B 4.3 21:24:55 10° NW 21:32:06 40° NNE 21:40:26 10° E
Cosmos 2360 Rocket 4.1 21:28:26 10° N 21:32:48 22° NE 21:37:09 10° E
ATLAS 3B R/B 3.8 21:30:07 23° SE 21:32:53 29° ESE 21:39:16 10° NE
Meteor 2-6 Rocket 4.3 21:30:19 16° SSW 21:35:03 85° WNW 21:40:48 10° N
Cosmos 1536 2.6 21:32:17 10° N 21:36:06 85° W 21:37:32 37° S
Cosmos 2369 3.7 21:32:43 10° NNW 21:38:25 84° ENE 21:41:29 29° SSE
SeaSat 1 2.5 21:36:40 29° SSE 21:39:10 67° WSW 21:44:04 10° NW
Cosmos 2221 2.6 21:37:30 23° SSW 21:40:01 70° W 21:44:12 10° N
Cosmos 405 Rocket 3.2 21:37:41 10° N 21:40:57 39° ENE 21:41:40 34° ESE
Cosmos 2150 Rocket 4.5 21:35:49 10° NNW 21:41:06 57° WSW 21:44:04 26° S
CZ-2C R/B 4.5 21:38:43 10° NNE 21:42:41 33° E 21:43:42 29° ESE
Okean 1 3.6 21:42:38 25° SSW 21:44:35 57° WNW 21:48:12 10° N
Cosmos 2082 Rocket 2.2 21:42:04 23° S 21:45:36 65° ESE 21:51:10 10° NNE
Cosmos 1674 2.5 21:48:35 40° N 21:48:35 40° N 21:50:09 10° N
Timation 1 Rocket 4.5 21:47:15 26° S 21:50:26 55° ESE 21:56:16 10° NE
Cosmos 773 Rocket 4.3 21:51:32 12° SW 21:56:19 63° WNW 22:01:26 10° NNE
ISS -3.1 21:53:15 10° WNW 21:56:12 40° SW 21:56:12 40° SW
Okean 3 Rocket 3.9 21:53:20 10° N 21:57:40 53° ENE 21:59:09 36° SE
Meteor 1-10 Rocket 4.3 21:54:20 27° S 21:57:46 82° E 22:03:38 10° NNE
COBE Rocket 3.9 21:53:05 10° NNE 21:58:14 86° ESE 22:00:56 29° S
Cosmos 2239 Rocket 4.5 21:53:12 10° N 21:59:26 83° W 22:02:47 29° S
Landsat 5 4.3 21:55:38 10° NNE 21:59:29 34° E 22:00:10 32° ESE
Cosmos 220 Rocket 4.3 21:57:21 20° SW 21:59:59 60° WNW 22:04:02 10° NNE
Cosmos 2084 Rocket 4.3 21:56:13 10° WSW 22:00:24 51° NW 22:04:32 10° NE
Cosmos 1766 Rocket 3.6 21:56:09 10° NNW 22:00:33 70° W 22:02:12 37° S
COSMOS 2406 3.3 21:59:10 31° S 22:01:43 56° ESE 22:07:18 10° NE
USA 59 Rocket -0.1 22:10:23 40° E 22:10:23 40° E 22:12:34 10° NE
Cosmos 2333 Rocket 3.1 22:06:46 10° NNW 22:12:13 42° NE 22:15:54 19° ESE
MetOp-A 4.0 22:10:43 37° SSE 22:12:51 87° ENE 22:18:04 10° NNW
NOSS 3-1 (C) 4.3 22:09:31 10° WSW 22:14:19 44° NNW 22:20:12 10° NE
Cosmos 1151 Rocket 4.2 22:19:28 26° ESE 22:20:05 27° E 22:23:41 10° NNE
NOSS 2-1 (E) 3.2 22:21:20 47° E 22:21:20 47° E 22:23:46 10° NE
ALOS 2 3.1 22:19:44 36° ESE 22:21:10 51° ENE 22:25:27 10° N
Meteor 2-13 Rocket 4.4 22:19:05 32° S 22:22:07 80° E 22:28:16 10° NNE
PKM 4.4 22:19:42 10° W 22:22:27 53° NNW 22:27:07 10° ENE
Cosmos 2219 Rocket 3.7 22:23:02 10° NNW 22:27:57 30° NE 22:32:39 11° ESE
ATLAS CENTAUR R/B 4.4 22:30:09 10° WNW 22:32:23 15° NNW 22:34:38 10° N
Meteor 2-4 Rocket 3.9 22:30:52 37° SSE 22:33:01 61° E 22:38:46 10° NNE
Meteor 1-27 Rocket 3.7 22:30:54 33° SSW 22:33:35 82° WNW 22:39:09 10° N
NOSS 2-1 (D) 2.6 22:36:14 83° WNW 22:36:17 83° NW 22:39:17 10° NE
Cosmos 1980 Rocket 3.7 22:32:35 10° NW 22:37:00 24° WSW 22:39:12 19° SW
Sich 1 2.9 22:33:13 10° N 22:37:28 80° E 22:38:23 54° SSE
USA 234 4.0 22:33:20 10° ENE 22:39:39 54° NNW 22:45:58 10° W
Genesis I 3.4 22:38:27 10° NW 22:40:24 41° NW 22:40:24 41° NW
NOSS 3-1 (A) 3.8 22:38:54 10° WSW 22:43:45 53° NW 22:49:45 10° NE
PSLV R/B 3.9 22:42:20 10° NNE 22:46:21 44° E 22:46:52 42° ESE
SL-16 R/B 2.1 22:43:17 10° NNW 22:48:57 77° WSW 22:51:04 40° SSE
Cosmos 1975 3.2 22:46:18 10° NNW 22:49:48 42° W 22:50:13 41° WSW
Cosmos 1707 2.2 22:51:14 82° ENE 22:51:14 82° ENE 22:54:32 10° NNE
Cosmos 1538 Rocket 3.9 22:50:41 40° SSW 22:52:35 85° ESE 22:57:45 10° NNE
Cosmos 1500 Rocket 3.4 22:48:12 10° N 22:52:35 87° W 22:53:33 54° S
NOSS 2-1 (C) 3.3 22:55:40 46° W 22:56:12 54° NW 22:59:10 10° NE
Cosmos 2322 Rocket 2.2 22:52:15 10° NNW 22:57:57 80° ENE 23:00:25 35° SE
Spot 4 4.1 22:56:43 42° SSW 22:58:02 57° W 23:02:45 10° NNW
Cosmos 1633 Rocket 4.4 22:55:24 10° N 22:59:16 30° ENE 23:00:47 24° ESE
Cosmos 1408 Rocket 3.7 22:57:11 10° NNW 23:01:28 59° W 23:02:20 48° SW
ARIANE 5 R/B 3.5 23:01:14 31° SW 23:02:11 35° W 23:06:12 10° NNW
Cosmos 1766 4.3 23:02:11 10° NNW 23:05:10 28° W 23:05:17 28° W
Cosmos 1908 3.7 23:03:32 10° NNW 23:06:26 38° W 23:06:26 38° W
Cosmos 1066 Rocket 4.2 23:04:55 41° S 23:06:57 73° E 23:12:42 10° NNE
Cosmos 1470 2.6 23:03:42 10° NNW 23:07:13 59° W 23:07:19 59° WSW
Meteor 2-10 Rocket 4.5 23:02:41 10° N 23:08:13 46° ENE 23:11:09 26° SE
Cosmos 1805 Rocket 3.7 23:04:16 10° NNW 23:08:40 64° W 23:09:35 50° SSW
Cosmos 2278 4.0 23:09:35 10° NW 23:15:01 50° WSW 23:16:39 38° SSW
GP-B 3.0 23:11:12 10° N 23:15:36 75° E 23:16:31 54° SSE
Meteor 1-18 Rocket 4.2 23:14:33 39° S 23:16:50 90° E 23:22:45 10° NNE
Exosat Rocket 3.6 23:12:01 10° NNW 23:17:00 61° WSW 23:18:24 44° SSW
Cosmos 2360 Rocket 2.1 23:11:53 10° NNW 23:17:33 88° WSW 23:19:46 39° SSE
Cosmos 2173 Rocket 4.4 23:12:18 10° N 23:18:34 56° ENE 23:21:47 28° SE
ATLAS 3B R/B 3.0 23:17:16 19° SW 23:22:56 82° NW 23:30:51 10° NE
USA 229 DEB 3.4 23:20:46 33° SSW 23:23:42 79° SE 23:30:30 10° NE
CENTAUR R/B 3.3 23:15:34 10° NW 23:23:46 89° NE 23:31:24 17° SE
USA 229 3.4 23:20:54 34° SSW 23:23:48 78° SE 23:30:35 10° NE
Cosmos 1328 Rocket 4.1 23:23:10 38° ESE 23:23:58 42° E 23:28:03 10° NNE
Spot 1 4.3 23:20:02 10° N 23:24:17 64° WNW 23:25:34 43° SW
ASTEX 1 3.4 23:19:40 10° N 23:24:38 78° E 23:26:06 46° S
Cosmos 1743 Rocket 3.8 23:22:33 10° NNW 23:26:54 56° W 23:27:46 47° SW
GEOS 3 Rocket 4.5 23:22:10 10° ESE 23:27:03 48° NE 23:31:59 10° NW
Cosmos 2082 Rocket 3.9 23:25:19 10° WSW 23:30:07 28° NW 23:34:57 10° NNE
Celestis-02/Orion 38 4.5 23:31:28 43° S 23:33:07 72° WSW 23:38:12 10° NNW
Cosmos 1842 4.3 23:36:29 27° W 23:36:57 28° WNW 23:40:01 10° N
Cosmos 1420 Rocket 4.1 23:36:41 10° NNW 23:41:55 62° WSW 23:43:26 43° SSW
Cosmos 2112 Rocket 4.1 23:41:11 43° S 23:42:47 65° ESE 23:47:58 10° NNE
Cosmos 1455 2.3 23:44:41 10° N 23:47:02 46° NE 23:47:02 46° NE
Cosmos 2237 Rocket 4.4 23:43:43 10° NNW 23:48:14 24° NE 23:52:45 10° E
Cosmos 1300 3.2 23:47:53 10° NNW 23:50:26 36° WNW 23:50:26 36° WNW
SL-14 R/B 3.5 23:53:45 50° SE 23:54:17 55° E 23:58:05 10° NNE
